Latest Weather Observations for Toowoomba

IDQ60901

Issued at 10:21 am EST Monday 27 April 2015 (issued every 10 minutes, with the page automatically refreshed every 10 minutes)

About weather observations | Map of Brisbane area stations | Latest observations for Brisbane area | Other Formats
Station Details ID: 041529 Name: TOOWOOMBA AIRPORT Lat: -27.54 Lon: 151.91 Height: 640.9 m
Data from the previous 72 hours. | See also: Recent months at Toowoomba
Date/Time
EST
Tmp

°C
App
Tmp
°C
Dew
Point
°C
Rel
Hum
%
Delta-T

°C
Wind Press
QNH
hPa
Press
MSL
hPa
Rain
since
9 am
mm
Dir
 
Spd
km/h
Gust
km/h
Spd
kts
Gust
kts
27/10:00am 14.7 10.4 7.0 60 3.9 SW 19 22 10 12 1021.2 1018.8 0.0
27/09:30am 13.5 9.1 6.6 63 3.4 SSW 19 26 10 14 1021.4 1019.1 0.0
27/09:00am 12.7 8.1 6.7 67 3.0 SW 20 26 11 14 1021.4 1019.1 0.0
27/08:30am 11.5 6.9 6.6 72 2.4 SW 20 24 11 13 1021.2 1018.8 0.0
27/08:00am 10.5 6.5 6.6 77 1.9 SW 17 22 9 12 1020.9 1018.5 0.0
27/07:30am 8.9 4.4 6.2 83 1.3 SW 19 24 10 13 1020.7 1018.3 0.0
27/07:00am 7.5 4.1 5.8 89 0.8 SW 13 17 7 9 1020.3 1017.9 0.0
27/06:30am 6.3 3.0 4.6 89 0.8 W 11 13 6 7 1019.9 1017.6 0.0
27/06:00am 6.1 2.4 4.7 91 0.6 WSW 13 15 7 8 1019.6 1017.2 0.0
27/05:30am 6.1 3.2 4.7 91 0.6 W 9 13 5 7 1019.4 1017.0 0.0
27/05:00am 6.1 2.8 4.6 90 0.7 W 11 13 6 7 1019.1 1016.7 0.0
27/04:30am 7.2 3.2 5.0 86 1.0 SW 15 20 8 11 1018.8 1016.4 0.0
27/04:00am 7.6 3.3 5.1 84 1.1 SW 17 22 9 12 1018.4 1016.0 0.0
27/03:30am 7.9 2.3 5.2 83 1.2 SW 24 30 13 16 1017.9 1015.5 0.0
27/03:00am 7.8 2.9 5.3 84 1.2 SW 20 28 11 15 1018.0 1015.6 0.0
27/02:30am 7.7 3.4 5.2 84 1.2 SSW 17 22 9 12 1018.2 1015.8 0.0
27/02:00am 7.9 2.2 5.0 82 1.3 SW 24 28 13 15 1018.2 1015.8 0.0
27/01:30am 8.1 3.3 4.9 80 1.5 SW 19 24 10 13 1018.6 1016.2 0.0
27/01:00am 8.5 3.7 4.7 77 1.7 SW 19 24 10 13 1018.8 1016.4 0.0
27/12:30am 8.5 3.7 4.5 76 1.8 SW 19 22 10 12 1018.8 1016.4 0.0
27/12:00am 8.3 3.8 4.1 75 1.9 WSW 17 20 9 11 1019.4 1017.0 0.0
 
Date/Time
EST
Tmp

°C
App
Tmp
°C
Dew
Point
°C
Rel
Hum
%
Delta-T

°C
Wind Press
QNH
hPa
Press
MSL
hPa
Rain
since
9 am
mm
Dir
 
Spd
km/h
Gust
km/h
Spd
kts
Gust
kts
26/11:30pm 9.0 4.6 4.6 74 2.0 WSW 17 26 9 14 1019.4 1017.0 0.0
26/11:00pm 8.7 4.9 4.1 73 2.1 W 13 17 7 9 1019.6 1017.2 0.0
26/10:30pm 9.8 5.0 4.4 69 2.5 WSW 19 24 10 13 1019.7 1017.3 0.0
26/10:00pm 9.5 4.4 4.3 70 2.4 WSW 20 28 11 15 1019.7 1017.3 0.0
26/09:30pm 9.3 5.2 4.1 70 2.4 W 15 19 8 10 1019.7 1017.3 0.0
26/09:00pm 9.5 5.4 4.1 69 2.5 WSW 15 17 8 9 1019.8 1017.4 0.0
26/08:30pm 10.1 5.6 4.0 66 2.8 WSW 17 20 9 11 1019.5 1017.1 0.0
26/08:00pm 10.7 6.2 4.2 64 3.0 WSW 17 24 9 13 1019.3 1016.9 0.0
26/07:30pm 10.8 5.7 4.0 63 3.1 WSW 20 28 11 15 1018.8 1016.4 0.0
26/07:00pm 11.4 5.9 3.9 60 3.5 WSW 22 30 12 16 1018.1 1015.7 0.0
26/06:30pm 11.8 6.6 3.8 58 3.7 WSW 20 28 11 15 1017.8 1015.4 0.0
26/06:00pm 12.4 6.9 3.9 56 4.0 WSW 22 30 12 16 1017.3 1014.9 0.0
26/05:30pm 13.0 6.3 3.7 53 4.3 W 28 35 15 19 1017.0 1014.5 0.0
26/05:00pm 13.9 6.8 3.7 50 4.8 WSW 30 43 16 23 1016.5 1014.1 0.0
26/04:38pm 14.3 7.2 3.5 48 5.1 WSW 30 48 16 26 1016.2 1013.8 0.0
26/04:30pm 14.5 7.1 3.9 49 5.0 WSW 32 41 17 22 1016.2 1013.8 0.0
26/04:00pm 14.9 7.4 3.7 47 5.3 WSW 32 48 17 26 1016.0 1013.6 0.0
26/03:30pm 15.7 8.7 4.1 46 5.6 WSW 30 41 16 22 1015.7 1013.2 0.0
26/03:18pm 15.3 7.9 3.8 46 5.5 WSW 32 50 17 27 1015.5 1013.0 0.0
26/03:00pm 15.7 8.1 3.8 45 5.7 W 33 46 18 25 1015.3 1012.8 0.0
26/02:30pm 15.9 7.5 3.7 44 5.8 WSW 37 56 20 30 1015.0 1012.6 0.0
26/02:23pm 15.4 6.9 3.2 44 5.7 WSW 37 56 20 30 1014.8 1012.4 0.0
26/02:00pm 16.1 7.6 3.2 42 6.1 WSW 37 50 20 27 1014.6 1012.2 0.0
26/01:42pm 15.3 5.5 2.5 42 5.9 WSW 43 61 23 33 1014.5 1012.1 0.0
26/01:30pm 15.3 6.4 3.1 44 5.7 WSW 39 50 21 27 1014.6 1012.2 0.0
26/01:00pm 15.3 5.7 3.5 45 5.6 WSW 43 54 23 29 1014.9 1012.5 0.0
26/12:30pm 15.4 6.2 3.5 45 5.6 WSW 41 57 22 31 1014.9 1012.5 0.0
26/12:00pm 15.2 6.4 3.7 46 5.5 WSW 39 57 21 31 1015.1 1012.7 0.0
26/11:30am 14.6 5.7 2.8 45 5.5 WSW 39 56 21 30 1015.3 1012.8 0.0
26/11:00am 15.0 6.9 3.2 45 5.5 WSW 35 50 19 27 1015.9 1013.5 0.0
26/10:30am 14.7 6.6 3.2 46 5.4 WSW 35 50 19 27 1015.8 1013.4 0.0
26/10:00am 14.0 5.3 2.3 45 5.3 W 37 56 20 30 1015.6 1013.1 0.0
26/09:57am 14.2 5.5 1.8 43 5.6 W 37 56 20 30 1015.7 1013.2 0.0
26/09:30am 13.7 5.2 3.2 49 4.9 W 37 50 20 27 1015.9 1013.5 0.0
26/09:00am 12.9 4.8 3.3 52 4.4 WSW 35 54 19 29 1016.1 1013.7 0.0
26/08:51am 12.2 4.0 2.9 53 4.2 W 35 54 19 29 1016.0 1013.6 0.0
26/08:30am 11.9 3.8 3.2 55 4.0 WSW 35 48 19 26 1016.1 1013.7 0.0
26/08:00am 11.1 3.6 3.4 59 3.5 WSW 32 43 17 23 1015.9 1013.5 0.0
26/07:30am 10.6 4.1 2.7 58 3.5 WSW 26 37 14 20 1015.7 1013.2 0.0
26/07:00am 10.1 4.0 2.5 59 3.4 WSW 24 33 13 18 1015.3 1012.8 0.0
26/06:30am 9.9 3.7 2.3 59 3.3 W 24 33 13 18 1015.1 1012.7 0.0
26/06:00am 8.5 3.2 1.9 63 2.8 W 19 24 10 13 1014.8 1012.4 0.0
26/05:30am 8.5 3.2 1.9 63 2.8 WNW 19 24 10 13 1014.5 1012.1 0.0
26/05:00am 9.0 4.2 2.6 64 2.8 WNW 17 20 9 11 1014.3 1011.8 0.0
26/04:30am 9.5 4.7 2.8 63 3.0 W 17 22 9 12 1014.2 1011.7 0.0
26/04:00am 9.9 4.7 2.7 61 3.2 W 19 22 10 12 1014.2 1011.7 0.0
26/03:30am 10.3 5.6 2.9 60 3.3 W 17 22 9 12 1014.0 1011.5 0.0
26/03:00am 11.1 6.3 2.4 55 3.9 W 17 22 9 12 1013.8 1011.3 0.0
26/02:30am 11.9 6.7 2.4 52 4.3 W 19 24 10 13 1013.6 1011.1 0.0
26/02:00am 12.6 7.5 3.0 52 4.4 W 19 26 10 14 1013.6 1011.1 0.0
26/01:30am 12.6 8.3 3.5 54 4.2 WNW 15 19 8 10 1013.6 1011.1 0.0
26/01:00am 13.4 9.6 3.8 52 4.5 W 13 17 7 9 1013.4 1011.0 0.0
26/12:30am 14.1 9.9 3.6 49 4.9 W 15 22 8 12 1013.6 1011.1 0.0
26/12:00am 14.7 10.4 3.2 46 5.4 W 15 20 8 11 1013.7 1011.2 0.0
 
Date/Time
EST
Tmp

°C
App
Tmp
°C
Dew
Point
°C
Rel
Hum
%
Delta-T

°C
Wind Press
QNH
hPa
Press
MSL
hPa
Rain
since
9 am
mm
Dir
 
Spd
km/h
Gust
km/h
Spd
kts
Gust
kts
25/11:30pm 14.5 10.6 3.3 47 5.2 WNW 13 17 7 9 1013.8 1011.3 0.0
25/11:00pm 15.4 12.2 3.2 44 5.7 WNW 9 11 5 6 1013.9 1011.4 0.0
25/10:30pm 15.9 12.0 3.4 43 5.9 W 13 15 7 8 1014.0 1011.5 0.0
25/10:00pm 16.5 12.3 3.9 43 6.1 WSW 15 20 8 11 1014.1 1011.6 0.0
25/09:30pm 16.4 12.8 3.1 41 6.3 W 11 13 6 7 1014.2 1011.7 0.0
25/09:00pm 17.3 14.1 3.2 39 6.7 W 9 11 5 6 1014.0 1011.5 0.0
25/08:30pm 17.6 14.4 2.8 37 7.0 W 9 13 5 7 1013.9 1011.4 0.0
25/08:00pm 18.5 14.6 3.2 36 7.4 W 13 19 7 10 1013.6 1011.1 0.0
25/07:30pm 18.9 15.1 3.9 37 7.3 WSW 13 19 7 10 1013.3 1010.9 0.0
25/07:00pm 19.1 15.3 4.1 37 7.4 W 13 17 7 9 1013.0 1010.6 0.0
25/06:30pm 19.8 16.1 4.3 36 7.7 W 13 15 7 8 1012.7 1010.2 0.0
25/06:00pm 20.5 16.8 4.5 35 8.0 W 13 17 7 9 1012.3 1009.8 0.0
25/05:30pm 21.4 17.2 4.0 32 8.7 WNW 15 19 8 10 1012.1 1009.6 0.0
25/05:00pm 23.1 16.9 4.1 29 9.6 W 26 33 14 18 1011.7 1009.3 0.0
25/04:30pm 23.7 18.3 4.6 29 9.8 WNW 22 30 12 16 1011.6 1009.2 0.0
25/04:00pm 24.6 19.7 4.9 28 10.2 WNW 20 32 11 17 1011.4 1008.9 0.0
25/03:30pm 24.7 19.9 5.5 29 10.1 NW 20 30 11 16 1011.2 1008.7 0.0
25/03:00pm 24.8 19.6 5.6 29 10.1 WNW 22 32 12 17 1011.3 1008.8 0.0
25/02:30pm 25.1 20.2 5.3 28 10.4 WNW 20 32 11 17 1011.4 1008.9 0.0
25/02:00pm 25.6 21.0 5.8 28 10.5 WNW 19 26 10 14 1011.5 1009.0 0.0
25/01:30pm 24.5 19.6 4.3 27 10.4 W 19 32 10 17 1011.7 1009.3 0.0
25/01:00pm 23.8 18.3 4.2 28 10.0 WNW 22 33 12 18 1012.0 1009.5 0.0
25/12:30pm 23.9 19.2 5.3 30 9.7 WNW 19 32 10 17 1012.6 1010.1 0.0
25/12:00pm 23.8 20.3 7.0 34 9.0 WNW 15 26 8 14 1012.9 1010.4 0.0
25/11:30am 23.0 19.3 6.3 34 8.8 W 15 26 8 14 1013.4 1011.0 0.0
25/11:00am 22.4 18.7 6.2 35 8.5 W 15 26 8 14 1014.0 1011.5 0.0
25/10:30am 21.9 18.2 6.2 36 8.2 WNW 15 22 8 12 1014.2 1011.7 0.0
25/10:00am 20.9 17.9 7.5 42 7.1 WNW 13 20 7 11 1014.4 1012.0 0.0
25/09:30am 20.0 17.3 7.4 44 6.7 WNW 11 15 6 8 1014.7 1012.3 0.0
25/09:00am 19.1 17.0 8.1 49 5.9 NW 9 11 5 6 1014.9 1012.5 0.0
25/08:30am 17.6 15.6 8.5 55 4.8 NNW 9 11 5 6 1014.8 1012.4 0.0
25/08:00am 17.2 15.0 7.8 54 4.9 NNW 9 13 5 7 1014.7 1012.3 0.0
25/07:30am 16.4 14.4 8.6 60 4.1 NNW 9 13 5 7 1014.5 1012.1 0.0
25/07:00am 15.0 14.2 9.6 70 2.9 N 4 7 2 4 1013.8 1011.3 0.0
25/06:30am 14.7 12.3 7.0 60 3.9 NNW 9 9 5 5 1013.7 1011.2 0.0
25/06:00am 14.2 12.1 6.8 61 3.7 NW 7 9 4 5 1013.6 1011.1 0.0
25/05:30am 13.7 11.7 7.0 64 3.4 NW 7 7 4 4 1013.3 1010.9 0.0
25/05:00am 14.6 12.6 7.2 61 3.8 NNW 7 7 4 4 1013.1 1010.7 0.0
25/04:30am 14.8 12.8 7.1 60 3.9 NW 7 9 4 5 1013.0 1010.6 0.0
25/04:00am 14.7 12.7 7.0 60 3.9 NW 7 9 4 5 1012.9 1010.4 0.0
25/03:30am 15.4 13.5 6.9 57 4.3 WNW 6 7 3 4 1013.0 1010.6 0.0
25/03:00am 15.9 15.2 7.1 56 4.5 CALM 0 7 0 4 1012.9 1010.4 0.0
25/02:30am 15.7 15.2 7.7 59 4.1 CALM 0 0 0 0 1013.0 1010.6 0.0
25/02:00am 15.8 15.3 7.8 59 4.1 CALM 0 6 0 3 1013.1 1010.7 0.0
25/01:30am 15.6 14.0 8.1 61 3.9 WNW 6 6 3 3 1013.6 1011.1 0.0
25/01:00am 15.2 13.6 8.0 62 3.7 WNW 6 7 3 4 1013.7 1011.2 0.0
25/12:30am 16.0 14.4 8.0 59 4.2 WNW 6 9 3 5 1013.7 1011.2 0.0
25/12:00am 15.8 14.1 8.3 61 3.9 W 7 7 4 4 1013.8 1011.3 0.0
 
Date/Time
EST
Tmp

°C
App
Tmp
°C
Dew
Point
°C
Rel
Hum
%
Delta-T

°C
Wind Press
QNH
hPa
Press
MSL
hPa
Rain
since
9 am
mm
Dir
 
Spd
km/h
Gust
km/h
Spd
kts
Gust
kts
24/11:30pm 16.2 15.5 8.4 60 4.1 W 2 7 1 4 1013.8 1011.3 0.0
24/11:00pm 16.2 14.6 8.7 61 4.0 SW 7 7 4 4 1013.8 1011.3 0.0
24/10:30pm 16.7 15.3 8.7 59 4.2 SSW 6 7 3 4 1013.8 1011.3 0.0
24/10:00pm 17.0 15.6 8.7 58 4.4 SSW 6 9 3 5 1013.8 1011.3 0.0
24/09:30pm 17.1 15.5 8.8 58 4.4 SSW 7 9 4 5 1013.9 1011.4 0.0
24/09:00pm 17.1 15.7 8.8 58 4.4 SSW 6 7 3 4 1013.8 1011.3 0.0
24/08:30pm 17.4 15.8 8.8 57 4.6 SSW 7 9 4 5 1013.8 1011.3 0.0
24/08:00pm 17.7 16.3 8.8 56 4.8 SSW 6 6 3 3 1013.4 1011.0 0.0
24/07:30pm 18.1 16.5 8.9 55 4.9 SSW 7 7 4 4 1013.3 1010.9 0.0
24/07:00pm 18.5 16.9 8.7 53 5.3 SW 7 9 4 5 1012.9 1010.4 0.0
24/06:30pm 18.3 16.3 8.8 54 5.1 SW 9 11 5 6 1012.6 1010.1 0.0
24/06:00pm 18.8 16.8 8.7 52 5.4 WSW 9 11 5 6 1012.5 1010.0 0.0
24/05:30pm 20.2 17.5 8.8 48 6.2 WSW 13 17 7 9 1012.2 1009.7 0.0
24/05:00pm 21.5 18.0 8.7 44 7.0 W 17 22 9 12 1011.7 1009.3 0.0
24/04:30pm 22.3 18.8 8.8 42 7.4 SW 17 24 9 13 1011.5 1009.0 0.0
24/04:00pm 22.1 17.9 8.2 41 7.5 WSW 20 26 11 14 1011.3 1008.8 0.0
24/03:30pm 22.9 19.5 9.3 42 7.6 WSW 17 24 9 13 1011.3 1008.8 0.0
24/03:00pm 23.9 20.0 9.5 40 8.1 SW 20 28 11 15 1011.3 1008.8 0.0
24/02:30pm 23.8 20.8 10.5 43 7.6 WSW 17 22 9 12 1011.4 1008.9 0.0
24/02:00pm 21.8 18.0 9.7 46 6.7 WSW 20 26 11 14 1011.5 1009.0 0.0
24/01:30pm 22.3 18.3 9.1 43 7.3 WSW 20 28 11 15 1011.6 1009.2 0.0
24/01:00pm 22.7 19.0 9.5 43 7.4 WSW 19 26 10 14 1012.0 1009.5 0.0
24/12:30pm 22.3 18.9 10.5 47 6.7 W 19 30 10 16 1012.5 1010.0 0.0
24/12:00pm 22.2 19.0 10.0 46 6.8 WSW 17 28 9 15 1012.8 1010.3 0.0
24/11:30am 21.6 19.3 10.4 49 6.3 WNW 13 20 7 11 1013.4 1011.0 0.0
24/11:00am 20.8 17.9 10.9 53 5.6 W 17 24 9 13 1013.9 1011.4 0.0
24/10:30am 20.2 16.8 10.6 54 5.4 W 19 26 10 14 1014.3 1011.8 0.0

Latest Capital City Observations: Canberra | Sydney | Melbourne | Brisbane | Adelaide | Perth | Hobart | Darwin

Other Formats:

Comma delimited format used in spreadsheet applications
http://www.bom.gov.au/fwo/IDQ60901/IDQ60901.95551.axf

JavaScript Object Notation format (JSON) in row-major order
http://www.bom.gov.au/fwo/IDQ60901/IDQ60901.95551.json